Location: Oak Harbor
(48.2930°N, 122.6420°W)
Time: 01:21:39
(UTC-07:00)

ACS3 Solar Sail - Pass Details

Date: 20 May 2026
Orbit: 877 x 953 km, 97.2° (Epoch: 8 June)

Event Time Altitude Azimuth Distance (km) Brightness Sun altitude
Rises 00:08:23 0° 31° (NNE) 3,486 5.4 -20.5°
Reaches altitude 10° 00:13:07 10° 67° (ENE) 2,537 4.1 -20.6°
Maximum altitude 00:14:32 11° 81° (E) 2,472 3.9 -20.7°
Drops below altitude 10° 00:15:56 10° 96° (E) 2,534 3.8 -20.7°
Enters shadow 00:16:37 - 103° (ESE) 2,608 3.8 -20.8°
